Location: Bethera
(33.2010°N, 79.7880°W)
Time: 11:36:53
(UTC-04:00)

Amateur Radio Satellites - All Passes

Search period start: 26 September 2016 11:06
Search period end: 27 September 2016 11:06
Location: Bethera, 33.2010°N, 79.7880°W

Satellite Date Start Highest point End Downlink Frequencies (MHz)
Time Altitude Azimuth
QB50P2 26 Sep 11:16:57 11:19:52 18° 69° (ENE) 11:22:45 145.880/145.840
TIGRISAT 26 Sep 11:18:16 11:22:26 49° 260° (W) 11:26:34 435.000
POLYITAN 1 26 Sep 11:19:12 11:22:06 18° 69° (ENE) 11:24:59 437.675
GONETS M04 26 Sep 11:21:24 11:27:44 21° 290° (WNW) 11:34:08
HUMSAT D 26 Sep 11:27:01 11:31:17 79° 101° (E) 11:35:34 437.325/437.525
BEESAT 3 26 Sep 11:34:22 11:38:21 70° 243° (WSW) 11:42:16 437.485
DELFI C3 26 Sep 11:34:32 11:38:12 35° 287° (WNW) 11:41:51 145.870
ESTCUBE 1 26 Sep 11:38:56 11:41:07 13° 93° (E) 11:43:18 437.505/2401.250
FUNcube-1 26 Sep 11:47:25 11:49:10 12° 292° (WNW) 11:50:55 145.935
CUBEBUG 1 26 Sep 11:55:46 11:57:23 12° 93° (E) 11:58:59 437.445
QB50P1 26 Sep 11:58:34 12:02:40 55° 75° (ENE) 12:06:48 145.935-145.965
DUCHIFAT 1 26 Sep 11:58:37 12:02:37 47° 74° (ENE) 12:06:38 145.980
UNISAT 6 26 Sep 12:00:09 12:02:40 15° 266° (W) 12:05:10 437.425
BUGSAT 1 26 Sep 12:09:24 12:12:42 23° 71° (ENE) 12:15:59 437.445
POPSAT HIP 1 26 Sep 12:11:48 12:16:01 81° 77° (ENE) 12:20:13 437.405
BEESAT 2 26 Sep 12:26:19 12:29:59 35° 247° (WSW) 12:33:38 435.950
NANOSAT C BR1 26 Sep 12:29:29 12:33:39 63° 259° (W) 12:37:48 145.865
PHONESAT 2.4 26 Sep 12:30:36 12:33:26 41° 340° (NNW) 12:36:16 2401.200-2431.200
AISAT 26 Sep 12:37:11 12:41:06 31° 98° (E) 12:44:57 437.250
SPROUT 26 Sep 12:44:00 12:46:56 18° 95° (E) 12:49:51 437.525
JAS-2 26 Sep 12:47:08 12:53:17 76° 258° (WSW) 13:00:20 435.910
QB50P2 26 Sep 12:51:46 12:55:25 29° 263° (W) 12:59:05 145.880/145.840
POLYITAN 1 26 Sep 12:54:01 12:57:40 28° 263° (W) 13:01:18 437.675
UKube-1 26 Sep 12:54:15 12:57:30 21° 96° (E) 13:00:43 .
AIST 2 26 Sep 12:56:31 12:58:44 14° 50° (NE) 13:00:56 435.215
M-CUBED/EXP-1 PRIME 26 Sep 13:01:58 13:04:48 27° 103° (ESE) 13:07:38 437.505
ESTCUBE 1 26 Sep 13:13:47 13:18:05 44° 287° (WNW) 13:22:23 437.505/2401.250
DX 1 26 Sep 13:18:34 13:22:50 56° 101° (E) 13:27:04 434.975-435.025
VELOX 1 26 Sep 13:20:35 13:24:59 81° 286° (WNW) 13:29:22 145.980
YUBILEINY 26 Sep 13:22:09 13:25:58 13° 66° (ENE) 13:29:47 435.215
CUBEBUG 1 26 Sep 13:29:43 13:33:50 45° 286° (WNW) 13:37:56 437.445
50 SAT 26 Sep 13:35:41 13:39:09 41° 286° (WNW) 13:42:36 437.505
DUCHIFAT 1 26 Sep 13:37:39 13:38:30 10° 267° (W) 13:39:21 145.980
BUGSAT 1 26 Sep 13:44:49 13:47:58 21° 264° (W) 13:51:06 437.445
Oscar 19 26 Sep 13:51:47 13:56:55 67° 75° (ENE) 14:02:06 437.125/150
PCSat 26 Sep 13:54:10 13:58:05 20° 53° (NE) 14:02:00 145.827
AUBIESAT-1 26 Sep 14:00:16 14:03:25 44° 290° (WNW) 14:06:36 437.475
PHONESAT 2.4 26 Sep 14:07:45 14:10:00 19° 357° (N) 14:12:15 2401.200-2431.200
TISAT 1 26 Sep 14:09:59 14:13:46 33° 98° (E) 14:17:32 437.305
AISAT 26 Sep 14:14:16 14:17:17 19° 291° (WNW) 14:20:19 437.250
SPROUT 26 Sep 14:19:11 14:22:50 29° 288° (WNW) 14:26:30 437.525
UKube-1 26 Sep 14:29:51 14:33:27 26° 289° (WNW) 14:37:02 .
AIST 2 26 Sep 14:33:24 14:37:27 49° 246° (WSW) 14:41:29 435.215
Gurwin Techsat 1B 26 Sep 14:35:41 14:40:59 83° 75° (ENE) 14:46:19 435.225
M-CUBED/EXP-1 PRIME 26 Sep 14:38:11 14:39:04 11° 296° (WNW) 14:39:57 437.505
ITAMSAT 1 26 Sep 14:42:23 14:46:28 24° 68° (ENE) 14:50:34 435.822/435.867
SO-50 26 Sep 14:55:26 14:58:33 17° 109° (ESE) 15:01:39 436.795
DX 1 26 Sep 14:57:36 14:58:29 11° 295° (WNW) 14:59:22 434.975-435.025
Cosmos 2491 26 Sep 15:04:46 15:12:55 45° 88° (E) 15:21:06 435.465 / 435.565
AO-7 26 Sep 15:08:27 15:15:44 36° 63° (ENE) 15:23:01 29.400- 29.500
ITUPSAT 1 26 Sep 15:14:13 15:18:29 31° 98° (E) 15:22:44 437.325
YUBILEINY 26 Sep 15:15:15 15:24:00 84° 84° (E) 15:32:41 435.215
Cosmos 2504 26 Sep 15:16:42 15:23:11 31° 76° (ENE) 15:29:58 435.465 / 435.565
SWISSCUBE 26 Sep 15:27:55 15:32:37 52° 100° (E) 15:37:16 437.505
Oscar 19 26 Sep 15:35:05 15:36:37 11° 268° (W) 15:38:09 437.125/150
PCSat 26 Sep 15:36:30 15:41:43 49° 249° (WSW) 15:46:54 145.827
BEESAT 26 Sep 15:41:02 15:45:48 65° 101° (ESE) 15:50:33 436.000
PHONESAT 2.4 26 Sep 15:44:07 15:46:40 26° 13° (NNE) 15:49:16 2401.200-2431.200
TISAT 1 26 Sep 15:46:36 15:49:06 16° 292° (WNW) 15:51:35 437.305
MOZHAYETS 4 26 Sep 15:48:12 15:48:56 10° 92° (E) 15:49:40
ITAMSAT 1 26 Sep 16:21:06 16:25:42 33° 262° (W) 16:30:21 435.822/435.867
KKS-1 26 Sep 16:23:35 16:26:22 16° 95° (E) 16:29:09 437.445
SO-50 26 Sep 16:34:02 16:38:39 44° 302° (WNW) 16:43:16 436.795
HORYU 2 26 Sep 16:38:42 16:40:53 14° 67° (ENE) 16:43:05 437.375
AIST 1 26 Sep 16:41:23 16:44:52 24° 77° (ENE) 16:48:19
ITUPSAT 1 26 Sep 16:52:24 16:56:05 22° 291° (WNW) 16:59:46 437.325
AO-7 26 Sep 17:00:23 17:08:13 45° 259° (WSW) 17:16:06 29.400- 29.500
STARS 26 Sep 17:01:17 17:04:32 20° 96° (E) 17:07:46 437.465
Cosmos 2491 26 Sep 17:02:05 17:09:47 34° 285° (WNW) 17:17:35 435.465 / 435.565
SWISSCUBE 26 Sep 17:07:29 17:09:54 14° 294° (WNW) 17:12:19 437.505
Cosmos 2504 26 Sep 17:09:37 17:16:31 42° 270° (W) 17:23:53 435.465 / 435.565
YUBILEINY 26 Sep 17:15:06 17:19:34 15° 281° (W) 17:24:03 435.215
PHONESAT 2.4 26 Sep 17:20:02 17:22:58 66° 209° (SSW) 17:25:55 2401.200-2431.200
BEESAT 26 Sep 17:21:37 17:22:58 11° 296° (WNW) 17:24:20 436.000
MOZHAYETS 4 26 Sep 17:21:49 17:26:23 59° 285° (WNW) 17:30:57
GOMX 1 26 Sep 17:39:06 17:42:32 17° 68° (ENE) 17:45:54 467.674
BRITE-PL 26 Sep 17:39:25 17:44:44 42° 72° (ENE) 17:50:01 437.365/2234.400
NOAA 15 26 Sep 17:57:59 18:02:28 29° 69° (ENE) 18:06:59 137.62
KKS-1 26 Sep 17:58:58 18:02:59 35° 288° (WNW) 18:06:59 437.445
Cubesat XI-IV 26 Sep 18:08:32 18:13:01 29° 69° (ENE) 18:17:32 437.490
CUTE-I 26 Sep 18:09:09 18:13:41 30° 69° (ENE) 18:18:13 437.470
DOVE 4 26 Sep 18:09:33 18:11:59 14° 67° (ENE) 18:14:20 437.250
HORYU 2 26 Sep 18:12:49 18:17:01 44° 260° (W) 18:21:14 437.375
LilacSat-2 26 Sep 18:16:29 18:19:39 26° 73° (ENE) 18:22:50 437.200
AIST 1 26 Sep 18:19:09 18:22:16 20° 272° (W) 18:25:22
O/OREOS (USA 219) 26 Sep 18:23:04 18:27:41 83° 72° (ENE) 18:32:14 437.305
NOAA 18 26 Sep 18:36:30 18:41:42 46° 71° (ENE) 18:46:53 137.9125
STARS 26 Sep 18:37:08 18:40:49 27° 289° (WNW) 18:44:31 437.465
CUBESAT XI-V 26 Sep 18:37:17 18:41:58 74° 284° (WNW) 18:46:36 437.345
RS-15 26 Sep 18:37:43 18:43:33 15° 97° (E) 18:49:29 29.354- 29.394
GOMX 1 26 Sep 19:14:52 19:20:11 52° 261° (W) 19:25:21 467.674
BRITE-PL 26 Sep 19:18:50 19:23:13 23° 266° (W) 19:27:37 437.365/2234.400
CUSAT 1 26 Sep 19:19:49 19:25:02 38° 88° (E) 19:31:29 437.405
CINEMA 3 26 Sep 19:31:16 19:34:51 23° 71° (ENE) 19:38:19 145.822/145.860
NOAA 15 26 Sep 19:37:36 19:42:07 29° 263° (W) 19:46:41 137.62
GONETS M04 26 Sep 19:38:08 19:45:20 27° 73° (ENE) 19:52:26
HO-68 26 Sep 19:38:34 19:45:00 37° 67° (ENE) 19:51:26 435.675
DOVE 4 26 Sep 19:44:09 19:49:13 57° 260° (W) 19:54:02 437.250
Cubesat XI-IV 26 Sep 19:48:27 19:52:58 28° 263° (W) 19:57:31 437.490
CUTE-I 26 Sep 19:49:08 19:53:37 28° 263° (W) 19:58:07 437.470
LilacSat-2 26 Sep 19:51:43 19:53:56 15° 266° (W) 19:56:09 437.200
COMPASS 1 26 Sep 19:53:40 19:55:18 12° 67° (ENE) 19:56:57 437.405
JUGNU 26 Sep 20:09:37 20:11:42 12° 164° (SSE) 20:13:46 437.505
CUTE 1.7 + AOD 2 26 Sep 20:12:33 20:16:36 47° 75° (ENE) 20:20:41 437.475
CANX-2 26 Sep 20:13:24 20:17:32 58° 75° (ENE) 20:21:43 2200.000
SEEDS 26 Sep 20:16:58 20:20:47 35° 73° (ENE) 20:24:39 437.485
NOAA 18 26 Sep 20:18:45 20:22:30 19° 265° (W) 20:26:15 137.9125
Cosmos 2499 26 Sep 20:23:59 20:31:15 46° 79° (E) 20:39:02 435.465 / 435.565
AO-85 26 Sep 20:35:52 20:39:16 17° 109° (ESE) 20:42:33 145.980
DANDE 26 Sep 20:36:50 20:41:18 64° 94° (E) 20:47:23 436.750
STRAND 1 26 Sep 20:41:39 20:46:50 90° 101° (E) 20:51:59 437.568
RS-15 26 Sep 20:42:30 20:53:57 82° 115° (ESE) 21:06:04 29.354- 29.394
AAUSAT CUBESAT 2 26 Sep 20:43:43 20:47:34 38° 74° (ENE) 20:51:27 437.432
ISS 26 Sep 20:47:38 20:50:52 73° 135° (SE) 20:54:07 145.825
CUBEBUG 2 26 Sep 20:48:01 20:52:01 42° 74° (ENE) 20:55:58 437.445
FUNcube-1 26 Sep 21:01:25 21:04:32 21° 71° (ENE) 21:07:38 145.935
CUSAT 1 26 Sep 21:02:02 21:07:07 29° 290° (WNW) 21:13:14 437.405
CINEMA 3 26 Sep 21:08:05 21:11:51 25° 263° (W) 21:15:31 145.822/145.860
UWE-3 26 Sep 21:09:05 21:13:06 48° 75° (ENE) 21:17:07 435.000/436.395/437.385
HO-68 26 Sep 21:26:09 21:32:36 36° 262° (W) 21:39:03 435.675
COMPASS 1 26 Sep 21:26:26 21:30:25 44° 261° (W) 21:34:25 437.405
GONETS M04 26 Sep 21:33:59 21:42:28 55° 270° (W) 21:50:52
ZACube-1 26 Sep 21:41:28 21:45:37 75° 78° (ENE) 21:49:45 437.345
Oscar 11 26 Sep 21:41:57 21:46:13 74° 77° (ENE) 21:50:32 145.826/435.025
CUTE 1.7 + AOD 2 26 Sep 21:51:44 21:52:39 11° 268° (W) 21:53:34 437.475
SEEDS 26 Sep 21:54:19 21:56:34 14° 267° (W) 21:58:51 437.485
JUGNU 26 Sep 21:55:51 22:00:02 20° 173° (S) 22:04:11 437.505
AO-85 26 Sep 22:14:16 22:19:24 50° 301° (WNW) 22:24:15 145.980
HUMSAT D 26 Sep 22:14:26 22:17:57 29° 72° (ENE) 22:21:29 437.325/437.525
DELFI C3 26 Sep 22:15:23 22:19:20 69° 76° (ENE) 22:23:20 145.870
PRISM 26 Sep 22:15:44 22:19:53 88° 274° (W) 22:23:58 437.425
Cosmos 2499 26 Sep 22:17:41 22:24:00 29° 273° (W) 22:30:43 435.465 / 435.565
UNISAT 6 26 Sep 22:20:51 22:20:59 10° 92° (E) 22:21:09 437.425
AAUSAT CUBESAT 2 26 Sep 22:21:14 22:23:10 13° 267° (W) 22:25:06 437.432
DANDE 26 Sep 22:22:53 22:25:08 13° 298° (WNW) 22:27:38 436.750
ISS 26 Sep 22:26:17 22:27:42 12° 331° (NNW) 22:29:06 145.825
CUBEBUG 2 26 Sep 22:27:17 22:28:47 12° 267° (W) 22:30:18 437.445
FUNcube-1 26 Sep 22:37:18 22:40:37 23° 264° (W) 22:43:56 145.935
SRMSAT 26 Sep 22:51:06 22:53:50 13° 165° (SSE) 22:56:35 437.500
ANTELSAT 26 Sep 22:52:58 22:56:43 26° 97° (E) 23:00:30 437.575/2403.000
RS-15 26 Sep 22:58:08 23:07:52 29° 319° (NW) 23:18:02 29.354- 29.394
TIGRISAT 26 Sep 23:13:29 23:17:42 43° 99° (E) 23:21:59 435.000
AISAT 26 Sep 23:31:13 23:34:10 18° 68° (ENE) 23:37:06 437.250
JUGNU 26 Sep 23:44:03 23:48:24 21° 183° (S) 23:52:46 437.505
M-CUBED/EXP-1 PRIME 26 Sep 23:44:13 23:47:34 23° 68° (ENE) 23:50:43 437.505
UKube-1 26 Sep 23:46:53 23:48:00 11° 65° (ENE) 23:49:04 .
QB50P1 26 Sep 23:49:22 23:51:07 12° 93° (E) 23:52:50 145.935-145.965
DUCHIFAT 1 26 Sep 23:50:09 23:50:21 10° 93° (E) 23:50:32 145.980
HUMSAT D 26 Sep 23:50:59 23:53:34 16° 265° (W) 23:56:10 437.325/437.525
UNISAT 6 26 Sep 23:53:36 23:57:55 56° 285° (WNW) 00:02:21 437.425
POPSAT HIP 1 27 Sep 00:01:45 00:04:36 18° 95° (E) 00:07:27 437.405
JAS-2 27 Sep 00:02:08 00:08:06 24° 92° (E) 00:13:48 435.910
50 SAT 27 Sep 00:07:58 00:11:19 37° 74° (ENE) 00:14:42 437.505
ESTCUBE 1 27 Sep 00:08:28 00:12:59 84° 258° (WSW) 00:17:32 437.505/2401.250
DX 1 27 Sep 00:10:09 00:13:53 28° 71° (ENE) 00:17:37 434.975-435.025
VELOX 1 27 Sep 00:13:22 00:17:40 51° 74° (ENE) 00:22:00 145.980
NANOSAT C BR1 27 Sep 00:18:21 00:21:56 27° 97° (E) 00:25:30 145.865
CUBEBUG 1 27 Sep 00:20:45 00:25:11 84° 76° (ENE) 00:29:36 437.445
ANTELSAT 27 Sep 00:29:50 00:33:15 22° 289° (WNW) 00:36:43 437.575/2403.000
SRMSAT 27 Sep 00:38:02 00:42:20 21° 175° (S) 00:46:37 437.500
QB50P2 27 Sep 00:40:05 00:44:15 60° 100° (E) 00:48:26 145.880/145.840
AUBIESAT-1 27 Sep 00:41:22 00:45:35 85° 256° (WSW) 00:49:31 437.475
POLYITAN 1 27 Sep 00:42:19 00:46:29 60° 101° (ESE) 00:50:39 437.675
TIGRISAT 27 Sep 00:51:43 00:54:00 14° 292° (WNW) 00:56:17 435.000
TISAT 1 27 Sep 00:58:43 01:01:08 15° 68° (ENE) 01:03:33 437.305
AISAT 27 Sep 01:06:16 01:10:20 34° 262° (W) 01:14:23 437.250
SPROUT 27 Sep 01:07:36 01:11:50 68° 258° (WSW) 01:16:06 437.525
SO-50 27 Sep 01:09:27 01:13:52 50° 58° (ENE) 01:18:11 436.795
M-CUBED/EXP-1 PRIME 27 Sep 01:18:28 01:21:56 24° 257° (WSW) 01:25:14 437.505
UKube-1 27 Sep 01:19:16 01:23:30 54° 259° (W) 01:27:45 .
BEESAT 3 27 Sep 01:20:37 01:24:23 52° 115° (ESE) 01:28:12 437.485
Cosmos 2491 27 Sep 01:22:02 01:27:22 17° 68° (ENE) 01:32:39 435.465 / 435.565
DUCHIFAT 1 27 Sep 01:22:12 01:26:14 49° 285° (WNW) 01:30:17 145.980
RS-15 27 Sep 01:22:58 01:26:40 12° 353° (N) 01:30:23 29.354- 29.394
QB50P1 27 Sep 01:23:03 01:27:01 41° 286° (WNW) 01:30:58 145.935-145.965
BUGSAT 1 27 Sep 01:29:30 01:33:31 73° 101° (E) 01:37:32 437.445
JUGNU 27 Sep 01:33:31 01:36:46 15° 193° (SSW) 01:39:59 437.505
POPSAT HIP 1 27 Sep 01:36:43 01:40:22 29° 288° (WNW) 01:44:00 437.405
JAS-2 27 Sep 01:45:44 01:53:27 61° 288° (WNW) 02:00:45 435.910
DX 1 27 Sep 01:46:48 01:50:00 20° 264° (W) 01:53:15 434.975-435.025
VELOX 1 27 Sep 01:53:01 01:54:21 11° 267° (W) 01:55:42 145.980
NANOSAT C BR1 27 Sep 01:54:26 01:57:26 19° 290° (WNW) 02:00:26 145.865
Oscar 19 27 Sep 02:08:02 02:12:38 33° 98° (E) 02:17:13 437.125/150
BEESAT 2 27 Sep 02:13:32 02:17:26 74° 298° (WNW) 02:21:24 435.950
ITUPSAT 1 27 Sep 02:17:17 02:21:00 23° 69° (ENE) 02:24:44 437.325
YUBILEINY 27 Sep 02:17:52 02:23:20 18° 81° (E) 02:28:48 435.215
SRMSAT 27 Sep 02:26:34 02:30:52 21° 185° (S) 02:35:11 437.500
SWISSCUBE 27 Sep 02:30:18 02:34:37 36° 72° (ENE) 02:38:59 437.505
TISAT 1 27 Sep 02:32:36 02:36:26 35° 262° (W) 02:40:17 437.305
BEESAT 27 Sep 02:43:13 02:47:43 45° 73° (ENE) 02:52:15 436.000
SO-50 27 Sep 02:51:53 02:53:49 13° 253° (WSW) 02:55:44 436.795
Gurwin Techsat 1B 27 Sep 02:56:20 03:01:27 46° 100° (E) 03:06:31 435.225
BEESAT 3 27 Sep 03:01:02 03:02:20 11° 311° (NW) 03:03:38 437.485
ITAMSAT 1 27 Sep 03:01:16 03:02:52 11° 92° (E) 03:04:27 435.822/435.867
Cosmos 2491 27 Sep 03:16:18 03:25:10 83° 265° (W) 03:33:58 435.465 / 435.565
AO-7 27 Sep 03:17:59 03:20:43 12° 92° (E) 03:23:26 29.400- 29.500
ISS 27 Sep 03:19:45 03:21:39 14° 31° (NNE) 03:23:33 145.825
RS-15 27 Sep 03:38:24 03:46:48 20° 32° (NNE) 03:55:06 29.354- 29.394
Oscar 19 27 Sep 03:47:41 03:51:44 24° 292° (WNW) 03:55:47 437.125/150
Cosmos 2504 27 Sep 03:51:09 03:57:14 28° 87° (E) 04:03:06 435.465 / 435.565
ITUPSAT 1 27 Sep 03:54:31 03:58:38 29° 263° (W) 04:02:47 437.325
STARS 27 Sep 03:55:48 03:57:11 11° 66° (ENE) 03:58:34 437.465
SWISSCUBE 27 Sep 04:09:16 04:12:29 18° 265° (W) 04:15:43 437.505
YUBILEINY 27 Sep 04:10:19 04:19:06 75° 277° (W) 04:27:54 435.215
SRMSAT 27 Sep 04:16:31 04:19:22 14° 194° (SSW) 04:22:13 437.500
MOZHAYETS 4 27 Sep 04:19:04 04:23:37 79° 76° (ENE) 04:28:12
BEESAT 27 Sep 04:23:06 04:25:40 14° 266° (W) 04:28:14 436.000
AIST 2 27 Sep 04:26:28 04:30:33 84° 298° (WNW) 04:34:41 435.215
PCSat 27 Sep 04:30:44 04:35:43 39° 109° (ESE) 04:40:44 145.827
Gurwin Techsat 1B 27 Sep 04:37:25 04:40:58 18° 294° (WNW) 04:44:32 435.225
ITAMSAT 1 27 Sep 04:37:30 04:42:41 67° 286° (WNW) 04:47:52 435.822/435.867
KKS-1 27 Sep 04:52:07 04:56:33 66° 259° (W) 05:00:58 437.445
ISS 27 Sep 04:55:09 04:58:23 55° 227° (SW) 05:01:36 145.825
AO-7 27 Sep 05:06:04 05:14:24 81° 106° (ESE) 05:22:42 29.400- 29.500
AIST 1 27 Sep 05:06:44 05:09:43 18° 88° (E) 05:12:42
Cosmos 2491 27 Sep 05:17:27 05:20:32 12° 282° (WNW) 05:23:37 435.465 / 435.565
STARS 27 Sep 05:28:44 05:33:01 53° 260° (W) 05:37:19 437.465
CUBESAT XI-V 27 Sep 05:35:54 05:40:32 65° 76° (ENE) 05:45:13 437.345
Cosmos 2504 27 Sep 05:43:13 05:50:15 42° 281° (W) 05:57:02 435.465 / 435.565
RS-15 27 Sep 05:49:59 06:02:20 66° 58° (ENE) 06:14:15 29.354- 29.394
BRITE-PL 27 Sep 05:50:49 05:53:31 15° 91° (E) 05:56:06 437.365/2234.400
CUSAT 1 27 Sep 05:59:17 06:05:21 25° 69° (ENE) 06:10:38 437.405
HORYU 2 27 Sep 06:07:37 06:11:54 46° 100° (E) 06:16:11 437.375
PCSat 27 Sep 06:14:51 06:19:11 24° 305° (NW) 06:23:33 145.827
YUBILEINY 27 Sep 06:14:57 06:17:20 11° 296° (WNW) 06:19:43 435.215
NOAA 15 27 Sep 06:18:29 06:21:23 15° 93° (E) 06:24:16 137.62
Cubesat XI-IV 27 Sep 06:30:47 06:34:01 16° 94° (E) 06:37:14 437.490
CUTE-I 27 Sep 06:31:11 06:34:30 16° 94° (E) 06:37:48 437.470
AIST 1 27 Sep 06:43:15 06:47:02 28° 282° (WNW) 06:50:51
AO-85 27 Sep 06:50:36 06:54:27 39° 57° (ENE) 06:58:05 145.980
O/OREOS (USA 219) 27 Sep 06:53:40 06:56:27 16° 99° (E) 06:59:13 437.305
AO-7 27 Sep 07:00:46 07:06:12 20° 303° (WNW) 07:11:37 29.400- 29.500
NOAA 18 27 Sep 07:03:10 07:07:46 27° 97° (E) 07:12:22 137.9125
DANDE 27 Sep 07:18:41 07:26:49 50° 77° (ENE) 07:34:13 436.750
GOMX 1 27 Sep 07:21:38 07:25:59 67° 101° (E) 07:30:07 467.674
LilacSat-2 27 Sep 07:27:14 07:31:04 75° 100° (E) 07:34:54 437.200
BRITE-PL 27 Sep 07:27:49 07:32:13 38° 288° (WNW) 07:36:19 437.365/2234.400
CUSAT 1 27 Sep 07:40:30 07:47:47 51° 269° (W) 07:53:45 437.405
HORYU 2 27 Sep 07:45:52 07:48:01 13° 294° (WNW) 07:50:10 437.375
DOVE 4 27 Sep 07:47:40 07:51:44 50° 99° (E) 07:55:45 437.250
STRAND 1 27 Sep 07:53:12 07:58:17 83° 76° (ENE) 08:03:24 437.568
NOAA 15 27 Sep 07:56:15 08:01:24 54° 287° (WNW) 08:06:31 137.62
RS-15 27 Sep 08:03:43 08:13:53 32° 257° (WSW) 08:23:49 29.354- 29.394
CUTE 1.7 + AOD 2 27 Sep 08:03:47 08:05:16 12° 92° (E) 08:06:46 437.475
CANX-2 27 Sep 08:04:06 08:06:24 14° 93° (E) 08:08:43 2200.000
Cubesat XI-IV 27 Sep 08:09:07 08:14:18 51° 287° (WNW) 08:19:28 437.490
CUTE-I 27 Sep 08:09:35 08:14:45 50° 287° (WNW) 08:19:54 437.470
O/OREOS (USA 219) 27 Sep 08:31:16 08:35:28 37° 294° (WNW) 08:39:43 437.305
AO-85 27 Sep 08:32:55 08:34:22 12° 253° (WSW) 08:35:47 145.980
GONETS M04 27 Sep 08:33:32 08:41:18 36° 86° (E) 08:49:06
NOAA 18 27 Sep 08:43:34 08:48:20 32° 291° (WNW) 08:53:07 137.9125
CUBEBUG 2 27 Sep 08:44:22 08:46:13 12° 93° (E) 08:48:06 437.445
Cosmos 2499 27 Sep 08:56:30 09:03:06 39° 89° (E) 09:09:31 435.465 / 435.565
HO-68 27 Sep 08:57:33 09:04:35 58° 102° (ESE) 09:11:35 435.675
PRISM 27 Sep 09:00:52 09:04:39 35° 73° (ENE) 09:08:29 437.425
DANDE 27 Sep 09:02:05 09:09:10 32° 274° (W) 09:15:42 436.750
UWE-3 27 Sep 09:03:56 09:06:13 14° 94° (E) 09:08:31 435.000/436.395/437.385
CINEMA 3 27 Sep 09:05:45 09:09:56 79° 282° (WNW) 09:14:13 145.822/145.860
COMPASS 1 27 Sep 09:13:20 09:17:15 37° 98° (E) 09:21:09 437.405
Oscar 11 27 Sep 09:34:16 09:37:20 19° 95° (E) 09:40:24 145.826/435.025
ZACube-1 27 Sep 09:34:25 09:37:37 20° 96° (E) 09:40:52 437.345
CUTE 1.7 + AOD 2 27 Sep 09:37:11 09:41:17 45° 286° (WNW) 09:45:23 437.475
CANX-2 27 Sep 09:38:22 09:42:21 37° 286° (WNW) 09:46:19 2200.000
SEEDS 27 Sep 09:40:04 09:44:17 63° 284° (WNW) 09:48:29 437.485
PHONESAT 2.4 27 Sep 09:46:02 09:46:39 10° 141° (SE) 09:47:16 2401.200-2431.200
ANTELSAT 27 Sep 09:49:19 09:51:30 14° 68° (ENE) 09:53:39 437.575/2403.000
DELFI C3 27 Sep 09:59:03 10:00:37 12° 93° (E) 10:02:11 145.870
AAUSAT CUBESAT 2 27 Sep 10:05:04 10:09:13 61° 284° (WNW) 10:13:20 437.432
TIGRISAT 27 Sep 10:08:49 10:12:07 22° 71° (ENE) 10:15:24 435.000
CUBEBUG 2 27 Sep 10:18:53 10:22:58 43° 285° (WNW) 10:27:09 437.445
FUNcube-1 27 Sep 10:27:59 10:32:20 84° 102° (ESE) 10:36:47 145.935
GONETS M04 27 Sep 10:29:40 10:37:51 42° 283° (WNW) 10:46:08
BEESAT 2 27 Sep 10:36:10 10:38:55 18° 53° (NE) 10:41:40 435.950
PRISM 27 Sep 10:37:45 10:40:01 14° 266° (W) 10:42:18 437.425
UWE-3 27 Sep 10:38:43 10:42:46 40° 286° (WNW) 10:46:54 435.000/436.395/437.385
HO-68 27 Sep 10:46:24 10:51:46 24° 297° (WNW) 10:57:08 435.675
UNISAT 6 27 Sep 10:48:04 10:52:21 74° 76° (ENE) 10:56:36 437.425
Cosmos 2499 27 Sep 10:50:08 10:56:11 29° 285° (WNW) 11:02:09 435.465 / 435.565
COMPASS 1 27 Sep 10:50:10 10:52:26 14° 292° (WNW) 10:54:42 437.405
